Weather History for Grand Canyon, AZ

Change the Weather History Date:

Wednesday, December 5, 2012

  Actual Average Record
Temperature  
Mean Temperature 41 °F -  
Max Temperature 61 °F 43 °F 62 °F (1979)
Min Temperature 21 °F 15 °F 0 °F (2011)
Degree Days  
Heating Degree Days 24    
Moisture  
Dew Point 16 °F    
Average Humidity 45    
Maximum Humidity 75    
Minimum Humidity 16    
Precipitation  
Precipitation 0.00 in - - ()
Sea Level Pressure  
Sea Level Pressure 30.18 in    
Wind  
Wind Speed 2 mph (WSW)    
Max Wind Speed 12 mph    
Max Gust Speed 18 mph    
Visibility 10 miles    
Events      
Averages and records for this station are not official NWS values.
T = Trace of Precipitation, MM = Missing Value Source: NWS Daily Summary

Daily Weather History Graph

Daily Weather History Graph

Search for Another Location

Airport:

Trip Planner

Search our weather history database for the weather conditions in past years. The results will help you decide how hot, cold, wet, or windy it might be!

Date:

Astronomy

Dec. 05, 2012 Rise Set
Actual Time 7:24 AM MST 5:14 PM MST
Civil Twilight 6:56 AM MST 5:42 PM MST
Nautical Twilight 6:24 AM MST 6:14 PM MST
Astronomical Twilight 5:53 AM MST 6:45 PM MST
Moon 11:58 PM MST (12/5) 11:58 AM MST (12/5)
Length of Visible Light 10h 46m
Length of Day
9h 49m
Waning Gibbous, 59% of the Moon is Illuminated
Dec 5
Waning Gibbous
Dec 6
Last Quarter
Dec 13
New
Dec 19
First Quarter
Dec 28
Full

Hourly Weather History & Observations

Time (MST) Temp. Windchill Dew Point Humidity Pressure Visibility Wind Dir Wind Speed Gust Speed Precip Events Conditions
12:54 AM 26.1 °F - 16.0 °F 66% 30.27 in 10.0 mi Calm Calm - N/A   Clear
1:54 AM 25.0 °F - 16.0 °F 69% 30.26 in 10.0 mi Calm Calm - N/A   Clear
2:54 AM 24.1 °F - 15.1 °F 69% 30.27 in 10.0 mi Calm Calm - N/A   Clear
3:54 AM 24.1 °F - 15.1 °F 69% 30.25 in 10.0 mi Calm Calm - N/A   Clear
4:54 AM 21.9 °F - 15.1 °F 75% 30.28 in 10.0 mi Calm Calm - N/A   Clear
5:54 AM 21.0 °F - 14.0 °F 74% 30.30 in 10.0 mi Calm Calm - N/A   Clear
7:54 AM 21.0 °F - 14.0 °F 74% 30.33 in 10.0 mi Calm Calm - N/A   Clear
8:54 AM 35.1 °F - 19.9 °F 54% 30.27 in 10.0 mi Calm Calm - N/A   Clear
9:54 AM 55.0 °F - 21.0 °F 27% 30.20 in 10.0 mi SSW 9.2 mph - N/A   Clear
10:54 AM 57.0 °F - 16.0 °F 20% 30.19 in 10.0 mi SSW 10.4 mph - N/A   Clear
11:54 AM 57.0 °F - 16.0 °F 20% 30.16 in 10.0 mi SSW 9.2 mph - N/A   Clear
12:54 PM 61.0 °F - 16.0 °F 17% 30.12 in 10.0 mi SW 10.4 mph - N/A   Clear
1:54 PM 60.1 °F - 14.0 °F 16% 30.10 in 10.0 mi West 10.4 mph - N/A   Clear
2:54 PM 60.1 °F - 15.1 °F 17% 30.08 in 10.0 mi West 11.5 mph 18.4 mph N/A   Clear
3:54 PM 59.0 °F - 18.0 °F 20% 30.08 in 10.0 mi West 8.1 mph - N/A   Clear
4:54 PM 55.0 °F - 18.0 °F 23% 30.10 in 10.0 mi Calm Calm - N/A   Clear
5:54 PM 50.0 °F - 18.0 °F 28% 30.12 in 10.0 mi NW 3.5 mph - N/A   Clear
6:54 PM 36.0 °F - 14.0 °F 41% 30.19 in 10.0 mi Calm Calm - N/A   Clear
7:54 PM 34.0 °F 31.0 °F 15.1 °F 46% 30.19 in 10.0 mi NE 3.5 mph - N/A   Clear
8:54 PM 30.9 °F - 15.1 °F 52% 30.14 in 10.0 mi Calm Calm - N/A   Clear
9:54 PM 28.9 °F 25.2 °F 12.9 °F 51% 30.06 in 10.0 mi East 3.5 mph - N/A   Clear
10:54 PM 26.1 °F - 12.0 °F 55% 30.05 in 10.0 mi Calm Calm - N/A   Clear
11:54 PM 26.1 °F - 12.0 °F 55% 30.04 in 10.0 mi Calm Calm - N/A   Clear